,,PA_Meas_PMT16A,,PR_Meas_QMR101_102,,RH_Meas_QMH101,,SR_Meas_QMS101,,TA_Meas_QMH101,,GenWind,,GenWind,
time,status,PA,status,PR,status,RH,status,SR,status,TA,status,DirAvg,status,SpdAvg,
2010-11-17, 00:00:04,VALID,917.486,VALID,0,VALID,97.1833,VALID,0.107441,VALID,19.5843,VALID,6,VALID,1.2582,
2010-11-17, 00:01:04,VALID,917.481,VALID,0,VALID,97.1757,VALID,0.107441,VALID,19.5843,VALID,6,VALID,1.17266,
2010-11-17, 00:02:04,VALID,917.464,VALID,0,VALID,97.1757,VALID,0.107441,VALID,19.5633,VALID,29,VALID,1.21289,
2010-11-17, 00:03:04,VALID,917.469,VALID,0,VALID,97.1604,VALID,0,VALID,19.5648,VALID,28,VALID,1.33438,
2010-11-17, 00:04:04,VALID,917.509,VALID,0.2,VALID,97.1452,VALID,0.107441,VALID,19.5648,VALID,356,VALID,1.55391,
2010-11-17, 00:05:04,VALID,917.46,VALID,0,VALID,97.1452,VALID,0.107441,VALID,19.5648,VALID,45,VALID,1.42617,
2010-11-17, 00:06:04,VALID,917.467,VALID,0,VALID,97.1528,VALID,0.107441,VALID,19.5453,VALID,31,VALID,1.72812,
2010-11-17, 00:07:04,VALID,917.458,VALID,0,VALID,97.1071,VALID,0,VALID,19.5258,VALID,25,VALID,1.74258,
2010-11-17, 00:08:04,VALID,917.408,VALID,0.2,VALID,97.1299,VALID,0.107441,VALID,19.5273,VALID,14,VALID,2.19102,
2010-11-17, 00:09:04,VALID,917.414,VALID,0,VALID,97.1223,VALID,0.107441,VALID,19.4853,VALID,356,VALID,1.83633,
2010-11-17, 00:10:04,VALID,917.352,VALID,0,VALID,97.1376,VALID,0,VALID,19.5258,VALID,9,VALID,1.95117,
2010-11-17, 00:11:04,VALID,917.405,VALID,0.2,VALID,97.1376,VALID,0,VALID,19.5468,VALID,8,VALID,1.45977,
2010-11-17, 00:12:04,VALID,917.389,VALID,0,VALID,97.1223,VALID,0,VALID,19.5063,VALID,360,VALID,1.73008,
2010-11-17, 00:13:04,VALID,917.383,VALID,0,VALID,97.1604,VALID,0.107441,VALID,19.5048,VALID,360,VALID,0.678125,
2010-11-17, 00:14:04,VALID,917.374,VALID,0,VALID,97.1223,VALID,0,VALID,19.5078,VALID,360,VALID,0.483594,
2010-11-17, 00:15:04,VALID,917.357,VALID,0.2,VALID,97.2062,VALID,0,VALID,19.5468,VALID,360,VALID,0.367188,
2010-11-17, 00:16:04,VALID,917.37,VALID,0,VALID,97.1833,VALID,0,VALID,19.5648,VALID,360,VALID,0.00195313,
2010-11-17, 00:17:04,VALID,917.361,VALID,0,VALID,97.1757,VALID,0,VALID,19.5858,VALID,360,VALID,1.27188,
2010-11-17, 00:18:04,VALID,917.373,VALID,0.2,VALID,97.1909,VALID,0,VALID,19.5663,VALID,360,VALID,0.6375,
2010-11-17, 00:19:04,VALID,917.392,VALID,0,VALID,97.1604,VALID,0,VALID,19.5273,VALID,360,VALID,1.1,
2010-11-17, 00:20:04,VALID,917.373,VALID,0,VALID,97.1452,VALID,0,VALID,19.5468,VALID,3,VALID,1.49258,
2010-11-17, 00:21:04,VALID,917.394,VALID,0,VALID,97.1604,VALID,0,VALID,19.5468,VALID,354,VALID,1.20508,
2010-11-17, 00:22:04,VALID,917.381,VALID,0.2,VALID,97.1681,VALID,0,VALID,19.5468,VALID,29,VALID,1.98359,
2010-11-17, 00:23:04,VALID,917.39,VALID,0,VALID,97.1681,VALID,0,VALID,19.5273,VALID,8,VALID,1.45234,
2010-11-17, 00:24:04,VALID,917.395,VALID,0,VALID,97.1299,VALID,0,VALID,19.5078,VALID,7,VALID,1.74414,
2010-11-17, 00:25:04,VALID,917.373,VALID,0,VALID,97.1681,VALID,0,VALID,19.5078,VALID,7,VALID,1.53945,
2010-11-17, 00:26:04,VALID,917.373,VALID,0.2,VALID,97.1528,VALID,0,VALID,19.5078,VALID,7,VALID,1.75078,
2010-11-17, 00:27:04,VALID,917.394,VALID,0,VALID,97.1299,VALID,0,VALID,19.4883,VALID,7,VALID,1.83555,
2010-11-17, 00:28:04,VALID,917.333,VALID,0,VALID,97.1452,VALID,0,VALID,19.4883,VALID,7,VALID,1.01484,
2010-11-17, 00:29:04,VALID,917.352,VALID,0,VALID,97.1299,VALID,0,VALID,19.4688,VALID,6,VALID,1.59531,
2010-11-17, 00:30:04,VALID,917.373,VALID,0,VALID,97.1223,VALID,0,VALID,19.4478,VALID,347,VALID,1.39844,
2010-11-17, 00:31:04,VALID,917.351,VALID,0,VALID,97.1223,VALID,0,VALID,19.4688,VALID,336,VALID,0.942969,
2010-11-17, 00:32:04,VALID,917.338,VALID,0.2,VALID,97.1986,VALID,0,VALID,19.4883,VALID,51,VALID,1.1668,
2010-11-17, 00:33:04,VALID,917.308,VALID,0,VALID,97.1681,VALID,0,VALID,19.5078,VALID,26,VALID,1.33516,
2010-11-17, 00:34:04,VALID,917.288,VALID,0,VALID,97.1604,VALID,0,VALID,19.5078,VALID,7,VALID,1.4707,
2010-11-17, 00:35:04,VALID,917.301,VALID,0,VALID,97.1376,VALID,0,VALID,19.4478,VALID,325,VALID,1.85703,
2010-11-17, 00:36:04,VALID,917.304,VALID,0,VALID,97.1147,VALID,0,VALID,19.4493,VALID,350,VALID,1.87695,
2010-11-17, 00:37:04,VALID,917.277,VALID,0,VALID,97.1299,VALID,0,VALID,19.4493,VALID,343,VALID,1.14141,
2010-11-17, 00:38:04,VALID,917.299,VALID,0,VALID,97.1604,VALID,0,VALID,19.4688,VALID,357,VALID,0.775391,
2010-11-17, 00:39:04,VALID,917.309,VALID,0,VALID,97.1604,VALID,0,VALID,19.4493,VALID,22,VALID,0.3625,
2010-11-17, 00:40:04,VALID,917.322,VALID,0,VALID,97.1604,VALID,0,VALID,19.4688,VALID,22,VALID,0.225391,
2010-11-17, 00:41:04,VALID,917.305,VALID,0,VALID,97.1681,VALID,0,VALID,19.4688,VALID,21,VALID,0.691797,
2010-11-17, 00:42:04,VALID,917.307,VALID,0,VALID,97.1147,VALID,0,VALID,19.4688,VALID,352,VALID,1.23398,
2010-11-17, 00:43:04,VALID,917.278,VALID,0,VALID,97.1376,VALID,0,VALID,19.4493,VALID,28,VALID,1.75664,
2010-11-17, 00:44:04,VALID,917.307,VALID,0,VALID,97.1757,VALID,0,VALID,19.4673,VALID,16,VALID,0.515625,
2010-11-17, 00:45:04,VALID,917.254,VALID,0,VALID,97.1299,VALID,0,VALID,19.4673,VALID,344,VALID,1.06016,
2010-11-17, 00:46:04,VALID,917.287,VALID,0,VALID,97.1681,VALID,0,VALID,19.4868,VALID,51,VALID,0.444531,
2010-11-17, 00:47:04,VALID,917.262,VALID,0.2,VALID,97.1452,VALID,0,VALID,19.4868,VALID,51,VALID,1.07305,
2010-11-17, 00:48:04,VALID,917.288,VALID,0,VALID,97.1757,VALID,0.107441,VALID,19.5063,VALID,259,VALID,0.761719,
2010-11-17, 00:49:04,VALID,917.251,VALID,0,VALID,97.1681,VALID,0,VALID,19.5063,VALID,256,VALID,0.0863281,
2010-11-17, 00:50:04,VALID,917.268,VALID,0,VALID,97.2214,VALID,0,VALID,19.5453,VALID,256,VALID,0.8,
2010-11-17, 00:51:04,VALID,917.244,VALID,0,VALID,97.2062,VALID,0.107441,VALID,19.5648,VALID,256,VALID,0.491797,
2010-11-17, 00:52:04,VALID,917.216,VALID,0,VALID,97.1757,VALID,0,VALID,19.5453,VALID,256,VALID,0.0195313,
2010-11-17, 00:53:04,VALID,917.229,VALID,0,VALID,97.1986,VALID,0.107441,VALID,19.5648,VALID,256,VALID,0.173828,
2010-11-17, 00:54:04,VALID,917.222,VALID,0,VALID,97.1757,VALID,0.107441,VALID,19.5453,VALID,256,VALID,0.782422,
2010-11-17, 00:55:04,VALID,917.25,VALID,0,VALID,97.1833,VALID,0.107441,VALID,19.5438,VALID,256,VALID,0.226172,
2010-11-17, 00:56:04,VALID,917.248,VALID,0.2,VALID,97.1986,VALID,0.107441,VALID,19.5828,VALID,256,VALID,0,
2010-11-17, 00:57:04,VALID,917.237,VALID,0,VALID,97.1909,VALID,0.107441,VALID,19.6038,VALID,256,VALID,0,
2010-11-17, 00:58:04,VALID,917.228,VALID,0.2,VALID,97.1986,VALID,0.107441,VALID,19.6038,VALID,256,VALID,0.443359,
2010-11-17, 00:59:04,VALID,917.209,VALID,0.2,VALID,97.1909,VALID,0,VALID,19.6053,VALID,256,VALID,0.516406,
2010-11-17, 01:00:04,VALID,917.206,VALID,0.2,VALID,97.1986,VALID,0,VALID,19.6248,VALID,256,VALID,0.130469,
2010-11-17, 01:01:04,VALID,917.203,VALID,0.4,VALID,97.2062,VALID,0,VALID,19.6443,VALID,256,VALID,0.605469,
2010-11-17, 01:02:04,VALID,917.198,VALID,0.4,VALID,97.2062,VALID,0,VALID,19.6248,VALID,256,VALID,0.298828,
2010-11-17, 01:03:04,VALID,917.163,VALID,0.4,VALID,97.1909,VALID,0,VALID,19.5843,VALID,26,VALID,1.19375,
2010-11-17, 01:04:04,VALID,917.158,VALID,0.2,VALID,97.1909,VALID,0,VALID,19.5858,VALID,45,VALID,1.04531,
2010-11-17, 01:05:04,VALID,917.174,VALID,0.4,VALID,97.1757,VALID,0,VALID,19.5648,VALID,44,VALID,1.0168,
2010-11-17, 01:06:04,VALID,917.173,VALID,0,VALID,97.1986,VALID,0,VALID,19.5663,VALID,44,VALID,0.624219,
2010-11-17, 01:07:04,VALID,917.127,VALID,0.2,VALID,97.2062,VALID,0,VALID,19.5468,VALID,44,VALID,0.370703,
2010-11-17, 01:08:04,VALID,917.117,VALID,0.2,VALID,97.2062,VALID,0,VALID,19.5273,VALID,44,VALID,0.250781,
2010-11-17, 01:09:04,VALID,917.132,VALID,0,VALID,97.2062,VALID,0,VALID,19.5078,VALID,44,VALID,0,
2010-11-17, 01:10:04,VALID,917.073,VALID,0.2,VALID,97.2138,VALID,0,VALID,19.4883,VALID,44,VALID,0.289844,
2010-11-17, 01:11:04,VALID,917.069,VALID,0.2,VALID,97.2138,VALID,0,VALID,19.4883,VALID,44,VALID,0.209375,
2010-11-17, 01:12:04,VALID,917.064,VALID,0,VALID,97.1986,VALID,0,VALID,19.4478,VALID,44,VALID,0.000390625,
2010-11-17, 01:13:04,VALID,917.051,VALID,0.2,VALID,97.2062,VALID,0,VALID,19.4283,VALID,44,VALID,0.388672,
2010-11-17, 01:14:04,VALID,916.996,VALID,0,VALID,97.2367,VALID,0,VALID,19.4493,VALID,44,VALID,0.244922,
2010-11-17, 01:15:04,VALID,917.005,VALID,0.2,VALID,97.229,VALID,0,VALID,19.4493,VALID,44,VALID,0.0277344,
2010-11-17, 01:16:04,VALID,916.991,VALID,0.2,VALID,97.2367,VALID,0,VALID,19.4283,VALID,44,VALID,0,
2010-11-17, 01:17:04,VALID,916.965,VALID,0,VALID,97.2138,VALID,0,VALID,19.4493,VALID,44,VALID,0.0328125,
2010-11-17, 01:18:04,VALID,916.936,VALID,0.4,VALID,97.2595,VALID,0,VALID,19.4283,VALID,44,VALID,0,
2010-11-17, 01:19:04,VALID,916.936,VALID,0.2,VALID,97.2519,VALID,0,VALID,19.4703,VALID,44,VALID,0.58125,
2010-11-17, 01:20:04,VALID,916.95,VALID,0.4,VALID,97.2519,VALID,0,VALID,19.4103,VALID,44,VALID,0.338281,
2010-11-17, 01:21:04,VALID,916.929,VALID,0.4,VALID,97.2443,VALID,0,VALID,19.3893,VALID,44,VALID,0.230859,
2010-11-17, 01:22:04,VALID,916.907,VALID,0.2,VALID,97.2595,VALID,0,VALID,19.3908,VALID,44,VALID,0.371875,
2010-11-17, 01:23:04,VALID,916.908,VALID,0.4,VALID,97.2443,VALID,0,VALID,19.4103,VALID,44,VALID,0.550391,
2010-11-17, 01:24:04,VALID,916.888,VALID,0.2,VALID,97.2748,VALID,0,VALID,19.4103,VALID,44,VALID,0.378906,
2010-11-17, 01:25:04,VALID,916.884,VALID,0.2,VALID,97.2824,VALID,0,VALID,19.3893,VALID,44,VALID,0.612109,
2010-11-17, 01:26:04,VALID,916.851,VALID,0.2,VALID,97.2595,VALID,0,VALID,19.4103,VALID,44,VALID,0.433984,
2010-11-17, 01:27:04,VALID,916.834,VALID,0.2,VALID,97.2672,VALID,0,VALID,19.3908,VALID,44,VALID,0.391406,
2010-11-17, 01:28:04,VALID,916.855,VALID,0.2,VALID,97.2672,VALID,0,VALID,19.3908,VALID,44,VALID,0.328125,
2010-11-17, 01:29:04,VALID,916.871,VALID,0.2,VALID,97.2824,VALID,0,VALID,19.3908,VALID,44,VALID,0.363672,
2010-11-17, 01:30:04,VALID,916.849,VALID,0,VALID,97.2748,VALID,0,VALID,19.4103,VALID,44,VALID,0.301562,
2010-11-17, 01:31:04,VALID,916.832,VALID,0.2,VALID,97.29,VALID,0,VALID,19.3713,VALID,44,VALID,0,
2010-11-17, 01:32:04,VALID,916.853,VALID,0.2,VALID,97.29,VALID,0,VALID,19.3908,VALID,44,VALID,0.0269531,
2010-11-17, 01:33:04,VALID,916.819,VALID,0,VALID,97.2977,VALID,0,VALID,19.3923,VALID,44,VALID,0,
2010-11-17, 01:34:04,VALID,916.804,VALID,0.2,VALID,97.2977,VALID,0,VALID,19.3713,VALID,44,VALID,0.135156,
2010-11-17, 01:35:04,VALID,916.772,VALID,0.2,VALID,97.3053,VALID,0,VALID,19.3908,VALID,44,VALID,0,
2010-11-17, 01:36:04,VALID,916.78,VALID,0,VALID,97.3129,VALID,0,VALID,19.4103,VALID,44,VALID,0.046875,
2010-11-17, 01:37:04,VALID,916.741,VALID,0.2,VALID,97.3358,VALID,0,VALID,19.4298,VALID,44,VALID,0.424219,
2010-11-17, 01:38:04,VALID,916.749,VALID,0.2,VALID,97.29,VALID,0,VALID,19.4298,VALID,44,VALID,0.476172,
2010-11-17, 01:39:04,VALID,916.68,VALID,0,VALID,97.3053,VALID,0,VALID,19.3908,VALID,44,VALID,0.556641,
2010-11-17, 01:40:04,VALID,916.698,VALID,0.2,VALID,97.2977,VALID,0,VALID,19.3908,VALID,44,VALID,0.7125,
2010-11-17, 01:41:04,VALID,916.68,VALID,0.2,VALID,97.3205,VALID,0,VALID,19.3908,VALID,44,VALID,0.800781,
2010-11-17, 01:42:04,VALID,916.681,VALID,0,VALID,97.3053,VALID,0,VALID,19.3908,VALID,15,VALID,0.688281,
2010-11-17, 01:43:04,VALID,916.687,VALID,0.2,VALID,97.3053,VALID,0,VALID,19.3713,VALID,13,VALID,0.235156,
2010-11-17, 01:44:04,VALID,916.668,VALID,0,VALID,97.3129,VALID,0.107441,VALID,19.4088,VALID,13,VALID,0.206641,
2010-11-17, 01:45:04,VALID,916.652,VALID,0.2,VALID,97.3205,VALID,0,VALID,19.4088,VALID,13,VALID,0.203906,
2010-11-17, 01:46:04,VALID,916.649,VALID,0,VALID,97.3358,VALID,0,VALID,19.4088,VALID,13,VALID,0.468359,
2010-11-17, 01:47:04,VALID,916.642,VALID,0.2,VALID,97.3205,VALID,0,VALID,19.4283,VALID,13,VALID,0.753516,
2010-11-17, 01:48:04,VALID,916.609,VALID,0.4,VALID,97.3358,VALID,0,VALID,19.4088,VALID,13,VALID,1.16367,
2010-11-17, 01:49:04,VALID,916.579,VALID,0.2,VALID,97.3129,VALID,0,VALID,19.3698,VALID,13,VALID,1.52266,
2010-11-17, 01:50:04,VALID,916.528,VALID,0.4,VALID,97.3281,VALID,0.107441,VALID,19.3503,VALID,13,VALID,1.30469,
2010-11-17, 01:51:04,VALID,916.509,VALID,0.2,VALID,97.3129,VALID,0,VALID,19.3308,VALID,14,VALID,1.20547,
2010-11-17, 01:52:04,VALID,916.493,VALID,0.2,VALID,97.3281,VALID,0,VALID,19.3308,VALID,14,VALID,1.04727,
2010-11-17, 01:53:04,VALID,916.447,VALID,0.2,VALID,97.3205,VALID,0,VALID,19.3113,VALID,14,VALID,1.21133,
2010-11-17, 01:54:04,VALID,916.432,VALID,0,VALID,97.3358,VALID,0,VALID,19.2918,VALID,33,VALID,0.569922,
2010-11-17, 01:55:04,VALID,916.419,VALID,0,VALID,97.3205,VALID,0,VALID,19.3113,VALID,32,VALID,0.4875,
2010-11-17, 01:56:04,VALID,916.397,VALID,0.2,VALID,97.3358,VALID,0,VALID,19.2918,VALID,32,VALID,0.402734,
2010-11-17, 01:57:04,VALID,916.418,VALID,0,VALID,97.3205,VALID,0,VALID,19.2918,VALID,32,VALID,0.339453,
2010-11-17, 01:58:04,VALID,916.387,VALID,0.2,VALID,97.3281,VALID,0,VALID,19.2918,VALID,32,VALID,0,
2010-11-17, 01:59:04,VALID,916.408,VALID,0,VALID,97.3586,VALID,0,VALID,19.2918,VALID,32,VALID,0,
2010-11-17, 02:00:04,VALID,916.404,VALID,0.2,VALID,97.351,VALID,0,VALID,19.2918,VALID,32,VALID,0.435937,
2010-11-17, 02:01:04,VALID,916.382,VALID,0,VALID,97.351,VALID,0,VALID,19.2918,VALID,32,VALID,0.299219,
2010-11-17, 02:02:04,VALID,916.331,VALID,0.2,VALID,97.3663,VALID,0,VALID,19.2918,VALID,32,VALID,0,
2010-11-17, 02:03:04,VALID,916.311,VALID,0.2,VALID,97.3586,VALID,0.107441,VALID,19.3308,VALID,32,VALID,0.308203,
2010-11-17, 02:04:04,VALID,916.276,VALID,0.2,VALID,97.351,VALID,0,VALID,19.3113,VALID,32,VALID,0.367578,
2010-11-17, 02:05:04,VALID,916.257,VALID,0.2,VALID,97.3434,VALID,0,VALID,19.3128,VALID,32,VALID,0.737891,
2010-11-17, 02:06:04,VALID,916.216,VALID,0.2,VALID,97.3586,VALID,0,VALID,19.2723,VALID,32,VALID,0.582812,
2010-11-17, 02:07:04,VALID,916.208,VALID,0,VALID,97.3358,VALID,0.107441,VALID,19.2528,VALID,32,VALID,0.649219,
2010-11-17, 02:08:04,VALID,916.168,VALID,0.2,VALID,97.351,VALID,0,VALID,19.2528,VALID,32,VALID,0.619922,
2010-11-17, 02:09:04,VALID,916.16,VALID,0,VALID,97.3586,VALID,0,VALID,19.2334,VALID,32,VALID,0.632031,
2010-11-17, 02:10:04,VALID,916.135,VALID,0.2,VALID,97.3281,VALID,0,VALID,19.2139,VALID,33,VALID,0.729688,
2010-11-17, 02:11:04,VALID,916.114,VALID,0,VALID,97.3586,VALID,0,VALID,19.1749,VALID,33,VALID,0.663672,
2010-11-17, 02:12:04,VALID,916.068,VALID,0,VALID,97.3434,VALID,0,VALID,19.1554,VALID,33,VALID,0.359766,
2010-11-17, 02:13:04,VALID,916.053,VALID,0.2,VALID,97.3586,VALID,0,VALID,19.1749,VALID,33,VALID,0.566406,
2010-11-17, 02:14:04,VALID,916.038,VALID,0,VALID,97.3586,VALID,0,VALID,19.1583,VALID,33,VALID,0.636328,
2010-11-17, 02:15:04,VALID,916.018,VALID,0,VALID,97.3434,VALID,0,VALID,19.1178,VALID,33,VALID,0.756641,
2010-11-17, 02:16:04,VALID,915.974,VALID,0.2,VALID,97.351,VALID,0,VALID,19.1178,VALID,34,VALID,0.83125,
2010-11-17, 02:17:04,VALID,915.975,VALID,0,VALID,97.351,VALID,0,VALID,19.0788,VALID,34,VALID,0.850391,
2010-11-17, 02:18:04,VALID,915.955,VALID,0,VALID,97.351,VALID,0,VALID,19.0983,VALID,125,VALID,0.810156,
2010-11-17, 02:19:04,VALID,915.937,VALID,0,VALID,97.3663,VALID,0,VALID,19.0774,VALID,125,VALID,0.783984,
2010-11-17, 02:20:04,VALID,915.893,VALID,0.2,VALID,97.3586,VALID,0,VALID,19.0969,VALID,125,VALID,0.867578,
2010-11-17, 02:21:04,VALID,915.89,VALID,0,VALID,97.3815,VALID,0,VALID,19.0774,VALID,125,VALID,0.525391,
2010-11-17, 02:22:04,VALID,915.864,VALID,0,VALID,97.3739,VALID,0,VALID,19.0969,VALID,125,VALID,0.458594,
2010-11-17, 02:23:04,VALID,915.846,VALID,0,VALID,97.3815,VALID,0,VALID,19.1178,VALID,125,VALID,0.9875,
2010-11-17, 02:24:04,VALID,915.866,VALID,0.2,VALID,97.3739,VALID,0.107441,VALID,19.0969,VALID,125,VALID,1.12969,
2010-11-17, 02:25:04,VALID,915.84,VALID,0,VALID,97.3891,VALID,0,VALID,19.1373,VALID,125,VALID,0.61875,
2010-11-17, 02:26:04,VALID,915.83,VALID,0,VALID,97.3815,VALID,0,VALID,19.1359,VALID,125,VALID,1.03867,
2010-11-17, 02:27:04,VALID,915.868,VALID,0,VALID,97.3891,VALID,0,VALID,19.1359,VALID,125,VALID,0.351563,
2010-11-17, 02:28:04,VALID,915.858,VALID,0,VALID,97.4044,VALID,0,VALID,19.1568,VALID,125,VALID,0.965234,
2010-11-17, 02:29:04,VALID,915.84,VALID,0.2,VALID,97.3968,VALID,0,VALID,19.1749,VALID,125,VALID,0.500391,
2010-11-17, 02:30:04,VALID,915.851,VALID,0,VALID,97.3891,VALID,0,VALID,19.1763,VALID,124,VALID,0.823438,
2010-11-17, 02:31:04,VALID,915.868,VALID,0,VALID,97.412,VALID,0,VALID,19.1554,VALID,124,VALID,0.984766,
2010-11-17, 02:32:04,VALID,915.879,VALID,0,VALID,97.3891,VALID,0,VALID,19.1763,VALID,124,VALID,1.18203,
2010-11-17, 02:33:04,VALID,915.865,VALID,0,VALID,97.3968,VALID,0,VALID,19.1554,VALID,124,VALID,0.730859,
2010-11-17, 02:34:04,VALID,915.917,VALID,0,VALID,97.4044,VALID,0.107441,VALID,19.1554,VALID,124,VALID,0.542578,
2010-11-17, 02:35:04,VALID,915.886,VALID,0,VALID,97.4044,VALID,0,VALID,19.1554,VALID,124,VALID,1.11016,
2010-11-17, 02:36:04,VALID,915.894,VALID,0.2,VALID,97.4044,VALID,0,VALID,19.1554,VALID,124,VALID,0.521484,
2010-11-17, 02:37:04,VALID,915.908,VALID,0,VALID,97.4044,VALID,0,VALID,19.1554,VALID,124,VALID,0.9375,
2010-11-17, 02:38:04,VALID,915.892,VALID,0,VALID,97.3968,VALID,0,VALID,19.1763,VALID,123,VALID,0.493359,
2010-11-17, 02:39:04,VALID,915.886,VALID,0,VALID,97.3968,VALID,0,VALID,19.1359,VALID,123,VALID,0.632031,
2010-11-17, 02:40:04,VALID,915.889,VALID,0,VALID,97.3968,VALID,0,VALID,19.1373,VALID,123,VALID,0.739844,
2010-11-17, 02:41:04,VALID,915.882,VALID,0,VALID,97.4044,VALID,0,VALID,19.1164,VALID,123,VALID,0.596484,
2010-11-17, 02:42:04,VALID,915.866,VALID,0,VALID,97.412,VALID,0,VALID,19.0969,VALID,122,VALID,0.926562,
2010-11-17, 02:43:04,VALID,915.861,VALID,0.2,VALID,97.4196,VALID,0,VALID,19.0969,VALID,122,VALID,0.969531,
2010-11-17, 02:44:04,VALID,915.85,VALID,0,VALID,97.4196,VALID,0,VALID,19.0774,VALID,105,VALID,1.00977,
2010-11-17, 02:45:04,VALID,915.857,VALID,0,VALID,97.4044,VALID,0,VALID,19.0788,VALID,92,VALID,0.992578,
2010-11-17, 02:46:04,VALID,915.905,VALID,0,VALID,97.3968,VALID,0,VALID,19.0788,VALID,92,VALID,0.840625,
2010-11-17, 02:47:04,VALID,915.88,VALID,0,VALID,97.4273,VALID,0,VALID,19.0788,VALID,92,VALID,0.70625,
2010-11-17, 02:48:04,VALID,915.897,VALID,0.2,VALID,97.412,VALID,0,VALID,19.0788,VALID,92,VALID,0.821875,
2010-11-17, 02:49:04,VALID,915.894,VALID,0,VALID,97.4196,VALID,0,VALID,19.0788,VALID,92,VALID,0.374609,
2010-11-17, 02:50:04,VALID,915.893,VALID,0,VALID,97.4273,VALID,0,VALID,19.0983,VALID,92,VALID,0.441797,
2010-11-17, 02:51:04,VALID,915.933,VALID,0,VALID,97.412,VALID,0,VALID,19.0788,VALID,92,VALID,0.0121094,
2010-11-17, 02:52:04,VALID,915.915,VALID,0,VALID,97.412,VALID,0,VALID,19.1193,VALID,92,VALID,0,
2010-11-17, 02:53:04,VALID,915.932,VALID,0.2,VALID,97.4349,VALID,0,VALID,19.1178,VALID,92,VALID,0,
2010-11-17, 02:54:04,VALID,915.959,VALID,0,VALID,97.4196,VALID,0,VALID,19.1178,VALID,92,VALID,0.185156,
2010-11-17, 02:55:04,VALID,915.951,VALID,0,VALID,97.4349,VALID,0,VALID,19.0983,VALID,92,VALID,0,
2010-11-17, 02:56:04,VALID,915.919,VALID,0,VALID,97.4196,VALID,0,VALID,19.1178,VALID,92,VALID,0.138281,
2010-11-17, 02:57:04,VALID,915.93,VALID,0,VALID,97.4196,VALID,0,VALID,19.1568,VALID,92,VALID,0,
2010-11-17, 02:58:04,VALID,915.919,VALID,0,VALID,97.4273,VALID,0,VALID,19.1568,VALID,92,VALID,0,
2010-11-17, 02:59:04,VALID,915.927,VALID,0.2,VALID,97.4273,VALID,0,VALID,19.1749,VALID,92,VALID,0,
2010-11-17, 03:00:04,VALID,915.916,VALID,0,VALID,97.4349,VALID,0,VALID,19.1944,VALID,92,VALID,0,
2010-11-17, 03:01:04,VALID,915.929,VALID,0,VALID,97.4425,VALID,0.107441,VALID,19.2139,VALID,92,VALID,0,
2010-11-17, 03:02:04,VALID,915.938,VALID,0,VALID,97.4349,VALID,0,VALID,19.2139,VALID,92,VALID,0,
2010-11-17, 03:03:04,VALID,915.919,VALID,0,VALID,97.4349,VALID,0,VALID,19.2348,VALID,92,VALID,0,
2010-11-17, 03:04:04,VALID,915.953,VALID,0,VALID,97.4196,VALID,0,VALID,19.1944,VALID,92,VALID,0,
2010-11-17, 03:05:04,VALID,915.944,VALID,0,VALID,97.4273,VALID,0.107441,VALID,19.2153,VALID,92,VALID,0,
2010-11-17, 03:06:04,VALID,915.923,VALID,0.2,VALID,97.4425,VALID,0,VALID,19.2153,VALID,92,VALID,0.00742187,
2010-11-17, 03:07:04,VALID,915.905,VALID,0,VALID,97.4273,VALID,0,VALID,19.1944,VALID,92,VALID,0,
2010-11-17, 03:08:04,VALID,915.912,VALID,0,VALID,97.4425,VALID,0,VALID,19.2153,VALID,92,VALID,0,
2010-11-17, 03:09:04,VALID,915.9,VALID,0,VALID,97.4273,VALID,0,VALID,19.1944,VALID,92,VALID,0,
2010-11-17, 03:10:04,VALID,915.897,VALID,0,VALID,97.4349,VALID,0,VALID,19.1944,VALID,92,VALID,0,
2010-11-17, 03:11:04,VALID,915.88,VALID,0,VALID,97.4273,VALID,0,VALID,19.1944,VALID,92,VALID,0,
2010-11-17, 03:12:04,VALID,915.891,VALID,0.2,VALID,97.4273,VALID,0,VALID,19.2139,VALID,92,VALID,0,
2010-11-17, 03:13:04,VALID,915.891,VALID,0,VALID,97.4425,VALID,0,VALID,19.2348,VALID,92,VALID,0,
2010-11-17, 03:14:04,VALID,915.882,VALID,0,VALID,97.4425,VALID,0,VALID,19.2139,VALID,92,VALID,0,
2010-11-17, 03:15:04,VALID,915.876,VALID,0,VALID,97.4273,VALID,0,VALID,19.2528,VALID,92,VALID,0,
2010-11-17, 03:16:04,VALID,915.881,VALID,0,VALID,97.4501,VALID,0,VALID,19.2543,VALID,92,VALID,0,
2010-11-17, 03:17:04,VALID,915.888,VALID,0,VALID,97.4501,VALID,0,VALID,19.2723,VALID,92,VALID,0,
2010-11-17, 03:18:04,VALID,915.881,VALID,0.2,VALID,97.4273,VALID,0,VALID,19.2738,VALID,92,VALID,0,
2010-11-17, 03:19:04,VALID,915.867,VALID,0,VALID,97.4273,VALID,0.107441,VALID,19.2334,VALID,92,VALID,0,
2010-11-17, 03:20:04,VALID,915.839,VALID,0,VALID,97.412,VALID,0,VALID,19.2139,VALID,92,VALID,0,
2010-11-17, 03:21:04,VALID,915.867,VALID,0,VALID,97.4349,VALID,0,VALID,19.1944,VALID,92,VALID,0,
2010-11-17, 03:22:04,VALID,915.871,VALID,0,VALID,97.4501,VALID,0.107441,VALID,19.1749,VALID,92,VALID,0,
2010-11-17, 03:23:04,VALID,915.899,VALID,0.2,VALID,97.4349,VALID,0,VALID,19.1944,VALID,92,VALID,0,
2010-11-17, 03:24:04,VALID,915.892,VALID,0,VALID,97.4349,VALID,0,VALID,19.1944,VALID,92,VALID,0,
2010-11-17, 03:25:04,VALID,915.887,VALID,0,VALID,97.412,VALID,0.107441,VALID,19.2153,VALID,92,VALID,0.0246094,
2010-11-17, 03:26:04,VALID,915.893,VALID,0,VALID,97.4501,VALID,0.107441,VALID,19.1749,VALID,92,VALID,0.163672,
2010-11-17, 03:27:04,VALID,915.905,VALID,0,VALID,97.4501,VALID,0,VALID,19.1554,VALID,92,VALID,0.134375,
2010-11-17, 03:28:04,VALID,915.899,VALID,0.2,VALID,97.4273,VALID,0,VALID,19.1554,VALID,92,VALID,0,
2010-11-17, 03:29:04,VALID,915.891,VALID,0,VALID,97.4349,VALID,0,VALID,19.1958,VALID,92,VALID,0,
2010-11-17, 03:30:04,VALID,915.88,VALID,0,VALID,97.4425,VALID,0,VALID,19.1554,VALID,92,VALID,0,
2010-11-17, 03:31:04,VALID,915.883,VALID,0,VALID,97.4501,VALID,0,VALID,19.1763,VALID,92,VALID,0,
2010-11-17, 03:32:05,VALID,915.882,VALID,0.2,VALID,97.4425,VALID,0,VALID,19.1554,VALID,92,VALID,0.0527344,
2010-11-17, 03:33:05,VALID,915.867,VALID,0,VALID,97.4349,VALID,0,VALID,19.1763,VALID,92,VALID,0.277344,
2010-11-17, 03:34:05,VALID,915.876,VALID,0,VALID,97.4501,VALID,0,VALID,19.1359,VALID,92,VALID,0.530859,
2010-11-17, 03:35:05,VALID,915.897,VALID,0,VALID,97.4654,VALID,0.107441,VALID,19.1359,VALID,92,VALID,0.166406,
2010-11-17, 03:36:05,VALID,915.873,VALID,0,VALID,97.4654,VALID,0,VALID,19.1763,VALID,92,VALID,0.246875,
2010-11-17, 03:37:05,VALID,915.845,VALID,0,VALID,97.4654,VALID,0,VALID,19.1164,VALID,92,VALID,0.360156,
2010-11-17, 03:38:05,VALID,915.866,VALID,0.2,VALID,97.4501,VALID,0,VALID,19.1373,VALID,92,VALID,0.277344,
2010-11-17, 03:39:05,VALID,915.891,VALID,0,VALID,97.4577,VALID,0,VALID,19.1359,VALID,92,VALID,0,
2010-11-17, 03:40:05,VALID,915.86,VALID,0,VALID,97.473,VALID,0,VALID,19.1359,VALID,92,VALID,0,
2010-11-17, 03:41:05,VALID,915.886,VALID,0,VALID,97.4577,VALID,0.107441,VALID,19.1359,VALID,92,VALID,0,
2010-11-17, 03:42:05,VALID,915.825,VALID,0,VALID,97.4654,VALID,0,VALID,19.1359,VALID,92,VALID,0.04375,
2010-11-17, 03:43:05,VALID,915.848,VALID,0,VALID,97.4577,VALID,0.107441,VALID,19.1554,VALID,92,VALID,0.378125,
2010-11-17, 03:44:05,VALID,915.863,VALID,0,VALID,97.4654,VALID,0,VALID,19.1373,VALID,92,VALID,0.247656,
2010-11-17, 03:45:05,VALID,915.862,VALID,0.2,VALID,97.4806,VALID,0,VALID,19.1164,VALID,92,VALID,0.340625,